Year,Month,Day,Hour,Minute,Value (Times are PST for temperature in C)
2008,04,12,00,00,7.30
2008,04,12,00,01,7.30
2008,04,12,00,02,7.30
2008,04,12,00,03,7.30
2008,04,12,00,04,7.30
2008,04,12,00,05,7.30
2008,04,12,00,06,7.30
2008,04,12,00,07,7.20
2008,04,12,00,08,7.20
2008,04,12,00,09,7.20
2008,04,12,00,10,7.20
2008,04,12,00,11,7.20
2008,04,12,00,12,7.20
2008,04,12,00,13,7.20
2008,04,12,00,14,7.20
2008,04,12,00,15,7.20
2008,04,12,00,16,7.20
2008,04,12,00,17,7.20
2008,04,12,00,18,7.20
2008,04,12,00,19,7.20
2008,04,12,00,20,7.20
2008,04,12,00,21,7.20
2008,04,12,00,22,7.20
2008,04,12,00,23,7.20
2008,04,12,00,24,7.20
2008,04,12,00,25,7.20
2008,04,12,00,26,7.20
2008,04,12,00,27,7.20
2008,04,12,00,28,7.20
2008,04,12,00,29,7.20
2008,04,12,00,30,7.30
2008,04,12,00,31,7.30
2008,04,12,00,32,7.30
2008,04,12,00,33,7.30
2008,04,12,00,34,7.30
2008,04,12,00,35,7.30
2008,04,12,00,36,7.20
2008,04,12,00,37,7.20
2008,04,12,00,38,7.20
2008,04,12,00,39,7.20
2008,04,12,00,40,7.20
2008,04,12,00,41,7.20
2008,04,12,00,42,7.20
2008,04,12,00,43,7.20
2008,04,12,00,44,7.20
2008,04,12,00,45,7.20
2008,04,12,00,46,7.20
2008,04,12,00,47,7.20
2008,04,12,00,48,7.20
2008,04,12,00,49,7.20
2008,04,12,00,50,7.20
2008,04,12,00,51,7.20
2008,04,12,00,52,7.20
2008,04,12,00,53,7.20
2008,04,12,00,54,7.20
2008,04,12,00,55,7.20
2008,04,12,00,56,7.20
2008,04,12,00,57,7.20
2008,04,12,00,58,7.20
2008,04,12,00,59,7.20
2008,04,12,01,00,7.20
2008,04,12,01,01,7.20
2008,04,12,01,02,7.20
2008,04,12,01,03,7.20
2008,04,12,01,04,7.20
2008,04,12,01,05,7.20
2008,04,12,01,06,7.20
2008,04,12,01,07,7.20
2008,04,12,01,08,7.20
2008,04,12,01,09,7.20
2008,04,12,01,10,7.20
2008,04,12,01,11,7.10
2008,04,12,01,12,7.10
2008,04,12,01,13,7.10
2008,04,12,01,14,7.10
2008,04,12,01,15,7.10
2008,04,12,01,16,7.10
2008,04,12,01,17,7.10
2008,04,12,01,18,7.10
2008,04,12,01,19,7.10
2008,04,12,01,20,7.10
2008,04,12,01,21,7.10
2008,04,12,01,22,7.10
2008,04,12,01,23,7.10
2008,04,12,01,24,7.10
2008,04,12,01,25,7.10
2008,04,12,01,26,7.10
2008,04,12,01,27,7.10
2008,04,12,01,28,7.10
2008,04,12,01,29,7.10
2008,04,12,01,30,7.10
2008,04,12,01,31,7.10
2008,04,12,01,32,7.10
2008,04,12,01,33,7.10
2008,04,12,01,34,7.10
2008,04,12,01,35,7.10
2008,04,12,01,36,7.10
2008,04,12,01,37,7.10
2008,04,12,01,38,7.10
2008,04,12,01,39,7.10
2008,04,12,01,40,7.10
2008,04,12,01,41,7.10
2008,04,12,01,42,7.10
2008,04,12,01,43,7.00
2008,04,12,01,44,7.00
2008,04,12,01,45,7.00
2008,04,12,01,46,7.00
2008,04,12,01,47,7.00
2008,04,12,01,48,7.00
2008,04,12,01,49,7.00
2008,04,12,01,50,7.00
2008,04,12,01,51,6.90
2008,04,12,01,52,6.90
2008,04,12,01,53,6.90
2008,04,12,01,54,6.90
2008,04,12,01,55,6.90
2008,04,12,01,56,6.90
2008,04,12,01,57,6.80
2008,04,12,01,58,6.80
2008,04,12,01,59,6.80
2008,04,12,02,00,6.70
2008,04,12,02,01,6.70
2008,04,12,02,02,6.60
2008,04,12,02,03,6.50
2008,04,12,02,04,6.50
2008,04,12,02,05,6.40
2008,04,12,02,06,6.40
2008,04,12,02,07,6.40
2008,04,12,02,08,6.40
2008,04,12,02,09,6.40
2008,04,12,02,10,6.40
2008,04,12,02,11,6.40
2008,04,12,02,12,6.40
2008,04,12,02,13,6.40
2008,04,12,02,14,6.40
2008,04,12,02,15,6.40
2008,04,12,02,16,6.50
2008,04,12,02,17,6.50
2008,04,12,02,18,6.50
2008,04,12,02,19,6.50
2008,04,12,02,20,6.50
2008,04,12,02,21,6.50
2008,04,12,02,22,6.60
2008,04,12,02,23,6.60
2008,04,12,02,24,6.60
2008,04,12,02,25,6.60
2008,04,12,02,26,6.60
2008,04,12,02,27,6.60
2008,04,12,02,28,6.60
2008,04,12,02,29,6.60
2008,04,12,02,30,6.60
2008,04,12,02,31,6.60
2008,04,12,02,32,6.60
2008,04,12,02,33,6.60
2008,04,12,02,34,6.60
2008,04,12,02,35,6.60
2008,04,12,02,36,6.60
2008,04,12,02,37,6.60
2008,04,12,02,38,6.60
2008,04,12,02,39,6.70
2008,04,12,02,40,6.70
2008,04,12,02,41,6.70
2008,04,12,02,42,6.70
2008,04,12,02,43,6.70
2008,04,12,02,44,6.80
2008,04,12,02,45,6.80
2008,04,12,02,46,6.80
2008,04,12,02,47,6.80
2008,04,12,02,48,6.80
2008,04,12,02,49,6.80
2008,04,12,02,50,6.80
2008,04,12,02,51,6.80
2008,04,12,02,52,6.80
2008,04,12,02,53,6.80
2008,04,12,02,54,6.80
2008,04,12,02,55,6.80
2008,04,12,02,56,6.80
2008,04,12,02,57,6.80
2008,04,12,02,58,6.80
2008,04,12,02,59,6.80
2008,04,12,03,00,6.80
2008,04,12,03,01,6.70
2008,04,12,03,02,6.70
2008,04,12,03,03,6.70
2008,04,12,03,04,6.70
2008,04,12,03,05,6.70
2008,04,12,03,06,6.70
2008,04,12,03,07,6.70
2008,04,12,03,08,6.70
2008,04,12,03,09,6.70
2008,04,12,03,10,6.70
2008,04,12,03,11,6.70
2008,04,12,03,12,6.70
2008,04,12,03,13,6.70
2008,04,12,03,14,6.60
2008,04,12,03,15,6.60
2008,04,12,03,16,6.60
2008,04,12,03,17,6.60
2008,04,12,03,18,6.60
2008,04,12,03,19,6.60
2008,04,12,03,20,6.60
2008,04,12,03,21,6.60
2008,04,12,03,22,6.60
2008,04,12,03,23,6.60
2008,04,12,03,24,6.60
2008,04,12,03,25,6.60
2008,04,12,03,26,6.60
2008,04,12,03,27,6.60
2008,04,12,03,28,6.60
2008,04,12,03,29,6.60
2008,04,12,03,30,6.60
2008,04,12,03,31,6.60
2008,04,12,03,32,6.60
2008,04,12,03,33,6.60
2008,04,12,03,34,6.60
2008,04,12,03,35,6.50
2008,04,12,03,36,6.50
2008,04,12,03,37,6.60
2008,04,12,03,38,6.60
2008,04,12,03,39,6.60
2008,04,12,03,40,6.60
2008,04,12,03,41,6.60
2008,04,12,03,42,6.60
2008,04,12,03,43,6.60
2008,04,12,03,44,6.50
2008,04,12,03,45,6.50
2008,04,12,03,46,6.50
2008,04,12,03,47,6.50
2008,04,12,03,48,6.50
2008,04,12,03,49,6.40
2008,04,12,03,50,6.40
2008,04,12,03,51,6.40
2008,04,12,03,52,6.40
2008,04,12,03,53,6.40
2008,04,12,03,54,6.40
2008,04,12,03,55,6.40
2008,04,12,03,56,6.40
2008,04,12,03,57,6.30
2008,04,12,03,58,6.30
2008,04,12,03,59,6.30
2008,04,12,04,00,6.30
2008,04,12,04,01,6.30
2008,04,12,04,02,6.30
2008,04,12,04,03,6.30
2008,04,12,04,04,6.30
2008,04,12,04,05,6.30
2008,04,12,04,06,6.30
2008,04,12,04,07,6.30
2008,04,12,04,08,6.30
2008,04,12,04,09,6.30
2008,04,12,04,10,6.30
2008,04,12,04,11,6.30
2008,04,12,04,12,6.30
2008,04,12,04,13,6.30
2008,04,12,04,14,6.20
2008,04,12,04,15,6.20
2008,04,12,04,16,6.20
2008,04,12,04,17,6.20
2008,04,12,04,18,6.20
2008,04,12,04,19,6.20
2008,04,12,04,20,6.20
2008,04,12,04,21,6.20
2008,04,12,04,22,6.20
2008,04,12,04,23,6.20
2008,04,12,04,24,6.20
2008,04,12,04,25,6.20
2008,04,12,04,26,6.20
2008,04,12,04,27,6.20
2008,04,12,04,28,6.10
2008,04,12,04,29,6.10
2008,04,12,04,30,6.10
2008,04,12,04,31,6.10
2008,04,12,04,32,6.10
2008,04,12,04,33,6.10
2008,04,12,04,34,6.10
2008,04,12,04,35,6.10
2008,04,12,04,36,6.10
2008,04,12,04,37,6.10
2008,04,12,04,38,6.10
2008,04,12,04,39,6.10
2008,04,12,04,40,6.10
2008,04,12,04,41,6.10
2008,04,12,04,42,6.10
2008,04,12,04,43,6.10
2008,04,12,04,44,6.10
2008,04,12,04,45,6.10
2008,04,12,04,46,6.00
2008,04,12,04,47,6.00
2008,04,12,04,48,6.00
2008,04,12,04,49,6.00
2008,04,12,04,50,6.00
2008,04,12,04,51,6.00
2008,04,12,04,52,6.00
2008,04,12,04,53,6.00
2008,04,12,04,54,6.00
2008,04,12,04,55,6.00
2008,04,12,04,56,6.00
2008,04,12,04,57,6.00
2008,04,12,04,58,6.00
2008,04,12,04,59,6.00
2008,04,12,05,00,6.00
2008,04,12,05,01,6.00
2008,04,12,05,02,6.00
2008,04,12,05,03,6.00
2008,04,12,05,04,6.00
2008,04,12,05,05,6.00
2008,04,12,05,06,6.00
2008,04,12,05,07,6.00
2008,04,12,05,08,6.00
2008,04,12,05,09,6.00
2008,04,12,05,10,6.00
2008,04,12,05,11,6.00
2008,04,12,05,12,6.00
2008,04,12,05,13,5.90
2008,04,12,05,14,6.00
2008,04,12,05,15,6.00
2008,04,12,05,16,6.00
2008,04,12,05,17,6.00
2008,04,12,05,18,6.00
2008,04,12,05,19,6.00
2008,04,12,05,20,6.00
2008,04,12,05,21,6.00
2008,04,12,05,22,6.00
2008,04,12,05,23,6.00
2008,04,12,05,24,6.00
2008,04,12,05,25,6.00
2008,04,12,05,26,6.00
2008,04,12,05,27,6.00
2008,04,12,05,28,6.00
2008,04,12,05,29,6.00
2008,04,12,05,30,6.00
2008,04,12,05,31,5.90
2008,04,12,05,32,5.90
2008,04,12,05,33,5.90
2008,04,12,05,34,5.90
2008,04,12,05,35,5.90
2008,04,12,05,36,5.90
2008,04,12,05,37,5.90
2008,04,12,05,38,5.90
2008,04,12,05,39,5.90
2008,04,12,05,40,5.90
2008,04,12,05,41,5.90
2008,04,12,05,42,5.90
2008,04,12,05,43,5.90
2008,04,12,05,44,5.90
2008,04,12,05,45,5.90
2008,04,12,05,46,5.90
2008,04,12,05,47,5.90
2008,04,12,05,48,5.90
2008,04,12,05,49,5.90
2008,04,12,05,50,5.90
2008,04,12,05,51,5.90
2008,04,12,05,52,5.90
2008,04,12,05,53,5.90
2008,04,12,05,54,5.90
2008,04,12,05,55,5.90
2008,04,12,05,56,5.90
2008,04,12,05,57,5.90
2008,04,12,05,58,5.80
2008,04,12,05,59,5.80
2008,04,12,06,00,5.80
2008,04,12,06,01,5.80
2008,04,12,06,02,5.80
2008,04,12,06,03,5.80
2008,04,12,06,04,5.70
2008,04,12,06,05,5.70
2008,04,12,06,06,5.70
2008,04,12,06,07,5.70
2008,04,12,06,08,5.70
2008,04,12,06,09,5.70
2008,04,12,06,10,5.70
2008,04,12,06,11,5.70
2008,04,12,06,12,5.70
2008,04,12,06,13,5.80
2008,04,12,06,14,5.80
2008,04,12,06,15,5.80
2008,04,12,06,16,5.80
2008,04,12,06,17,5.80
2008,04,12,06,18,5.80
2008,04,12,06,19,5.80
2008,04,12,06,20,5.80
2008,04,12,06,21,5.80
2008,04,12,06,22,5.80
2008,04,12,06,23,5.80
2008,04,12,06,24,5.80
2008,04,12,06,25,5.80
2008,04,12,06,26,5.80
2008,04,12,06,27,5.80
2008,04,12,06,28,5.80
2008,04,12,06,29,5.70
2008,04,12,06,30,5.70
2008,04,12,06,31,5.70
2008,04,12,06,32,5.70
2008,04,12,06,33,5.70
2008,04,12,06,34,5.70
2008,04,12,06,35,5.60
2008,04,12,06,36,5.60
2008,04,12,06,37,5.60
2008,04,12,06,38,5.60
2008,04,12,06,39,5.60
2008,04,12,06,40,5.60
2008,04,12,06,41,5.60
2008,04,12,06,42,5.50
2008,04,12,06,43,5.50
2008,04,12,06,44,5.50
2008,04,12,06,45,5.50
2008,04,12,06,46,5.50
2008,04,12,06,47,5.50
2008,04,12,06,48,5.50
2008,04,12,06,49,5.50
2008,04,12,06,50,5.60
2008,04,12,06,51,5.60
2008,04,12,06,52,5.60
2008,04,12,06,53,5.60
2008,04,12,06,54,5.60
2008,04,12,06,55,5.60
2008,04,12,06,56,5.60
2008,04,12,06,57,5.60
2008,04,12,06,58,5.60
2008,04,12,06,59,5.60
2008,04,12,07,00,5.60
2008,04,12,07,01,5.60
2008,04,12,07,02,5.60
2008,04,12,07,03,5.60
2008,04,12,07,04,5.60
2008,04,12,07,05,5.60
2008,04,12,07,06,5.70
2008,04,12,07,07,5.70
2008,04,12,07,08,5.70
2008,04,12,07,09,5.70
2008,04,12,07,10,5.70
2008,04,12,07,11,5.80
2008,04,12,07,12,5.80
2008,04,12,07,13,5.80
2008,04,12,07,14,5.90
2008,04,12,07,15,5.90
2008,04,12,07,16,5.90
2008,04,12,07,17,6.00
2008,04,12,07,18,6.00
2008,04,12,07,19,6.10
2008,04,12,07,20,6.10
2008,04,12,07,21,6.20
2008,04,12,07,22,6.20
2008,04,12,07,23,6.20
2008,04,12,07,24,6.20
2008,04,12,07,25,6.30
2008,04,12,07,26,6.30
2008,04,12,07,27,6.30
2008,04,12,07,28,6.30
2008,04,12,07,29,6.30
2008,04,12,07,30,6.40
2008,04,12,07,31,6.40
2008,04,12,07,32,6.40
2008,04,12,07,33,6.40
2008,04,12,07,34,6.40
2008,04,12,07,35,6.40
2008,04,12,07,36,6.40
2008,04,12,07,37,6.50
2008,04,12,07,38,6.50
2008,04,12,07,39,6.50
2008,04,12,07,40,6.50
2008,04,12,07,41,6.60
2008,04,12,07,42,6.60
2008,04,12,07,43,6.60
2008,04,12,07,44,6.60
2008,04,12,07,45,6.60
2008,04,12,07,46,6.70
2008,04,12,07,47,6.70
2008,04,12,07,48,6.70
2008,04,12,07,49,6.70
2008,04,12,07,50,6.70
2008,04,12,07,51,6.80
2008,04,12,07,52,6.80
2008,04,12,07,53,6.80
2008,04,12,07,54,6.80
2008,04,12,07,55,6.80
2008,04,12,07,56,6.80
2008,04,12,07,57,6.90
2008,04,12,07,58,6.90
2008,04,12,07,59,6.90
2008,04,12,08,00,7.00
2008,04,12,08,01,7.00
2008,04,12,08,02,7.10
2008,04,12,08,03,7.20
2008,04,12,08,04,7.20
2008,04,12,08,05,7.20
2008,04,12,08,06,7.30
2008,04,12,08,07,7.30
2008,04,12,08,08,7.30
2008,04,12,08,09,7.40
2008,04,12,08,10,7.40
2008,04,12,08,11,7.40
2008,04,12,08,12,7.40
2008,04,12,08,13,7.40
2008,04,12,08,14,7.50
2008,04,12,08,15,7.50
2008,04,12,08,16,7.50
2008,04,12,08,17,7.50
2008,04,12,08,18,7.60
2008,04,12,08,19,7.60
2008,04,12,08,20,7.60
2008,04,12,08,21,7.70
2008,04,12,08,22,7.70
2008,04,12,08,23,7.70
2008,04,12,08,24,7.80
2008,04,12,08,25,7.80
2008,04,12,08,26,7.80
2008,04,12,08,27,7.80
2008,04,12,08,28,7.80
2008,04,12,08,29,7.90
2008,04,12,08,30,7.90
2008,04,12,08,31,7.90
2008,04,12,08,32,8.00
2008,04,12,08,33,8.00
2008,04,12,08,34,8.10
2008,04,12,08,35,8.20
2008,04,12,08,36,8.20
2008,04,12,08,37,8.30
2008,04,12,08,38,8.30
2008,04,12,08,39,8.30
2008,04,12,08,40,8.40
2008,04,12,08,41,8.50
2008,04,12,08,42,8.50
2008,04,12,08,43,8.60
2008,04,12,08,44,8.60
2008,04,12,08,45,8.70
2008,04,12,08,46,8.70
2008,04,12,08,47,8.80
2008,04,12,08,48,8.90
2008,04,12,08,49,8.90
2008,04,12,08,50,8.90
2008,04,12,08,51,8.90
2008,04,12,08,52,9.00
2008,04,12,08,53,9.00
2008,04,12,08,54,9.10
2008,04,12,08,55,9.10
2008,04,12,08,56,9.10
2008,04,12,08,57,9.10
2008,04,12,08,58,9.20
2008,04,12,08,59,9.20
2008,04,12,09,00,9.20
2008,04,12,09,01,9.20
2008,04,12,09,02,9.30
2008,04,12,09,03,9.30
2008,04,12,09,04,9.30
2008,04,12,09,05,9.30
2008,04,12,09,06,9.30
2008,04,12,09,07,9.30
2008,04,12,09,08,9.30
2008,04,12,09,09,9.40
2008,04,12,09,10,9.40
2008,04,12,09,11,9.50
2008,04,12,09,12,9.50
2008,04,12,09,13,9.60
2008,04,12,09,14,9.60
2008,04,12,09,15,9.60
2008,04,12,09,16,9.70
2008,04,12,09,17,9.80
2008,04,12,09,18,9.90
2008,04,12,09,19,9.90
2008,04,12,09,20,10.00
2008,04,12,09,21,10.00
2008,04,12,09,22,10.10
2008,04,12,09,23,10.20
2008,04,12,09,24,10.20
2008,04,12,09,25,10.30
2008,04,12,09,26,10.40
2008,04,12,09,27,10.40
2008,04,12,09,28,10.50
2008,04,12,09,29,10.60
2008,04,12,09,30,10.70
2008,04,12,09,31,10.80
2008,04,12,09,32,10.90
2008,04,12,09,33,11.00
2008,04,12,09,34,11.10
2008,04,12,09,35,11.20
2008,04,12,09,36,11.30
2008,04,12,09,37,11.40
2008,04,12,09,38,11.50
2008,04,12,09,39,11.60
2008,04,12,09,40,11.70
2008,04,12,09,41,11.70
2008,04,12,09,42,11.70
2008,04,12,09,43,11.70
2008,04,12,09,44,11.70
2008,04,12,09,45,11.70
2008,04,12,09,46,11.80
2008,04,12,09,47,11.80
2008,04,12,09,48,11.80
2008,04,12,09,49,11.80
2008,04,12,09,50,11.70
2008,04,12,09,51,11.70
2008,04,12,09,52,11.70
2008,04,12,09,53,11.70
2008,04,12,09,54,11.80
2008,04,12,09,55,11.80
2008,04,12,09,56,11.80
2008,04,12,09,57,11.80
2008,04,12,09,58,11.80
2008,04,12,09,59,11.90
2008,04,12,10,00,11.90
2008,04,12,10,01,11.90
2008,04,12,10,02,11.90
2008,04,12,10,03,11.90
2008,04,12,10,04,11.90
2008,04,12,10,05,11.90
2008,04,12,10,06,12.00
2008,04,12,10,07,12.00
2008,04,12,10,08,12.00
2008,04,12,10,09,12.00
2008,04,12,10,10,12.10
2008,04,12,10,11,12.00
2008,04,12,10,12,12.10
2008,04,12,10,13,12.10
2008,04,12,10,14,12.10
2008,04,12,10,15,12.10
2008,04,12,10,16,12.10
2008,04,12,10,17,12.00
2008,04,12,10,18,12.00
2008,04,12,10,19,12.00
2008,04,12,10,20,12.00
2008,04,12,10,21,12.00
2008,04,12,10,22,12.10
2008,04,12,10,23,12.10
2008,04,12,10,24,12.10
2008,04,12,10,25,12.10
2008,04,12,10,26,12.20
2008,04,12,10,27,12.20
2008,04,12,10,28,12.20
2008,04,12,10,29,12.20
2008,04,12,10,30,12.20
2008,04,12,10,31,12.10
2008,04,12,10,32,12.10
2008,04,12,10,33,12.20
2008,04,12,10,34,12.20
2008,04,12,10,35,12.20
2008,04,12,10,36,12.20
2008,04,12,10,37,12.10
2008,04,12,10,38,12.10
2008,04,12,10,39,12.10
2008,04,12,10,40,12.00
2008,04,12,10,41,12.00
2008,04,12,10,42,11.90
2008,04,12,10,43,11.90
2008,04,12,10,44,12.00
2008,04,12,10,45,12.00
2008,04,12,10,46,12.00
2008,04,12,10,47,12.00
2008,04,12,10,48,12.00
2008,04,12,10,49,12.00
2008,04,12,10,50,12.00
2008,04,12,10,51,12.10
2008,04,12,10,52,12.20
2008,04,12,10,53,12.30
2008,04,12,10,54,12.40
2008,04,12,10,55,12.40
2008,04,12,10,56,12.50
2008,04,12,10,57,12.50
2008,04,12,10,58,12.50
2008,04,12,10,59,12.50
2008,04,12,11,00,12.60
2008,04,12,11,01,12.60
2008,04,12,11,02,12.60
2008,04,12,11,03,12.60
2008,04,12,11,04,12.60
2008,04,12,11,05,12.60
2008,04,12,11,06,12.60
2008,04,12,11,07,12.60
2008,04,12,11,08,12.60
2008,04,12,11,09,12.60
2008,04,12,11,10,12.60
2008,04,12,11,11,12.70
2008,04,12,11,12,12.70
2008,04,12,11,13,12.70
2008,04,12,11,14,12.80
2008,04,12,11,15,12.80
2008,04,12,11,16,12.80
2008,04,12,11,17,12.80
2008,04,12,11,18,12.90
2008,04,12,11,19,12.90
2008,04,12,11,20,12.90
2008,04,12,11,21,12.90
2008,04,12,11,22,12.90
2008,04,12,11,23,12.90
2008,04,12,11,24,12.80
2008,04,12,11,25,12.80
2008,04,12,11,26,12.80
2008,04,12,11,27,12.90
2008,04,12,11,28,12.90
2008,04,12,11,29,12.90
2008,04,12,11,30,12.90
2008,04,12,11,31,13.00
2008,04,12,11,32,13.00
2008,04,12,11,33,13.10
2008,04,12,11,34,13.20
2008,04,12,11,35,13.40
2008,04,12,11,36,13.50
2008,04,12,11,37,13.50
2008,04,12,11,38,13.60
2008,04,12,11,39,13.50
2008,04,12,11,40,13.50
2008,04,12,11,41,13.60
2008,04,12,11,42,13.60
2008,04,12,11,43,13.70
2008,04,12,11,44,13.70
2008,04,12,11,45,13.70
2008,04,12,11,46,13.80
2008,04,12,11,47,13.90
2008,04,12,11,48,14.00
2008,04,12,11,49,14.00
2008,04,12,11,50,14.10
2008,04,12,11,51,14.20
2008,04,12,11,52,14.20
2008,04,12,11,53,14.20
2008,04,12,11,54,14.10
2008,04,12,11,55,14.00
2008,04,12,11,56,13.90
2008,04,12,11,57,13.80
2008,04,12,11,58,13.70
2008,04,12,11,59,13.70
2008,04,12,12,00,13.70
2008,04,12,12,01,13.80
2008,04,12,12,02,13.80
2008,04,12,12,03,13.90
2008,04,12,12,04,13.90
2008,04,12,12,05,14.00
2008,04,12,12,06,14.00
2008,04,12,12,07,14.10
2008,04,12,12,08,14.10
2008,04,12,12,09,14.10
2008,04,12,12,10,14.10
2008,04,12,12,11,14.20
2008,04,12,12,12,14.20
2008,04,12,12,13,14.30
2008,04,12,12,14,14.30
2008,04,12,12,15,14.30
2008,04,12,12,16,14.30
2008,04,12,12,17,14.40
2008,04,12,12,18,14.40
2008,04,12,12,19,14.50
2008,04,12,12,20,14.50
2008,04,12,12,21,14.50
2008,04,12,12,22,14.40
2008,04,12,12,23,14.30
2008,04,12,12,24,14.30
2008,04,12,12,25,14.20
2008,04,12,12,26,14.20
2008,04,12,12,27,14.20
2008,04,12,12,28,14.10
2008,04,12,12,29,14.00
2008,04,12,12,30,14.00
2008,04,12,12,31,13.90
2008,04,12,12,32,13.80
2008,04,12,12,33,13.80
2008,04,12,12,34,13.80
2008,04,12,12,35,13.70
2008,04,12,12,36,13.70
2008,04,12,12,37,13.70
2008,04,12,12,38,13.70
2008,04,12,12,39,13.80
2008,04,12,12,40,13.80
2008,04,12,12,41,13.90
2008,04,12,12,42,14.00
2008,04,12,12,43,14.00
2008,04,12,12,44,14.10
2008,04,12,12,45,14.20
2008,04,12,12,46,14.30
2008,04,12,12,47,14.40
2008,04,12,12,48,14.40
2008,04,12,12,49,14.40
2008,04,12,12,50,14.40
2008,04,12,12,51,14.30
2008,04,12,12,52,14.30
2008,04,12,12,53,14.30
2008,04,12,12,54,14.30
2008,04,12,12,55,14.30
2008,04,12,12,56,14.20
2008,04,12,12,57,14.10
2008,04,12,12,58,14.10
2008,04,12,12,59,14.10
2008,04,12,13,00,14.00
2008,04,12,13,01,14.10
2008,04,12,13,02,14.10
2008,04,12,13,03,14.10
2008,04,12,13,04,14.10
2008,04,12,13,05,14.10
2008,04,12,13,06,14.10
2008,04,12,13,07,14.10
2008,04,12,13,08,14.10
2008,04,12,13,09,14.00
2008,04,12,13,10,13.90
2008,04,12,13,11,14.00
2008,04,12,13,12,14.10
2008,04,12,13,13,14.10
2008,04,12,13,14,14.10
2008,04,12,13,15,14.20
2008,04,12,13,16,14.20
2008,04,12,13,17,14.30
2008,04,12,13,18,14.30
2008,04,12,13,19,14.40
2008,04,12,13,20,14.50
2008,04,12,13,21,14.60
2008,04,12,13,22,14.70
2008,04,12,13,23,14.80
2008,04,12,13,24,14.90
2008,04,12,13,25,15.00
2008,04,12,13,26,15.00
2008,04,12,13,27,15.00
2008,04,12,13,28,15.00
2008,04,12,13,29,15.00
2008,04,12,13,30,15.00
2008,04,12,13,31,15.00
2008,04,12,13,32,15.10
2008,04,12,13,33,15.00
2008,04,12,13,34,15.00
2008,04,12,13,35,15.00
2008,04,12,13,36,15.00
2008,04,12,13,37,15.00
2008,04,12,13,38,15.00
2008,04,12,13,39,15.00
2008,04,12,13,40,15.00
2008,04,12,13,41,15.00
2008,04,12,13,42,14.90
2008,04,12,13,43,14.80
2008,04,12,13,44,14.80
2008,04,12,13,45,14.70
2008,04,12,13,46,14.70
2008,04,12,13,47,14.80
2008,04,12,13,48,14.80
2008,04,12,13,49,14.80
2008,04,12,13,50,14.80
2008,04,12,13,51,14.80
2008,04,12,13,52,14.80
2008,04,12,13,53,14.80
2008,04,12,13,54,14.60
2008,04,12,13,55,14.50
2008,04,12,13,56,14.40
2008,04,12,13,57,14.30
2008,04,12,13,58,14.20
2008,04,12,13,59,14.20
2008,04,12,14,00,14.20
2008,04,12,14,01,14.20
2008,04,12,14,02,14.20
2008,04,12,14,03,14.20
2008,04,12,14,04,14.30
2008,04,12,14,05,14.30
2008,04,12,14,06,14.40
2008,04,12,14,07,14.50
2008,04,12,14,08,14.40
2008,04,12,14,09,14.40
2008,04,12,14,10,14.40
2008,04,12,14,11,14.40
2008,04,12,14,12,14.30
2008,04,12,14,13,14.30
2008,04,12,14,14,14.20
2008,04,12,14,15,14.20
2008,04,12,14,16,14.20
2008,04,12,14,17,14.20
2008,04,12,14,18,14.20
2008,04,12,14,19,14.20
2008,04,12,14,20,14.30
2008,04,12,14,21,14.40
2008,04,12,14,22,14.40
2008,04,12,14,23,14.40
2008,04,12,14,24,14.40
2008,04,12,14,25,14.40
2008,04,12,14,26,14.40
2008,04,12,14,27,14.40
2008,04,12,14,28,14.50
2008,04,12,14,29,14.50
2008,04,12,14,30,14.60
2008,04,12,14,31,14.70
2008,04,12,14,32,14.70
2008,04,12,14,33,14.70
2008,04,12,14,34,14.70
2008,04,12,14,35,14.70
2008,04,12,14,36,14.80
2008,04,12,14,37,14.90
2008,04,12,14,38,14.90
2008,04,12,14,39,14.90
2008,04,12,14,40,15.00
2008,04,12,14,41,15.00
2008,04,12,14,42,14.90
2008,04,12,14,43,14.90
2008,04,12,14,44,14.90
2008,04,12,14,45,14.80
2008,04,12,14,46,14.80
2008,04,12,14,47,14.80
2008,04,12,14,48,14.80
2008,04,12,14,49,14.90
2008,04,12,14,50,14.90
2008,04,12,14,51,15.00
2008,04,12,14,52,15.00
2008,04,12,14,53,15.00
2008,04,12,14,54,15.00
2008,04,12,14,55,15.00
2008,04,12,14,56,15.00
2008,04,12,14,57,15.00
2008,04,12,14,58,15.00
2008,04,12,14,59,15.00
2008,04,12,15,00,15.00
2008,04,12,15,01,15.10
2008,04,12,15,02,15.10
2008,04,12,15,03,15.10
2008,04,12,15,04,15.10
2008,04,12,15,05,15.10
2008,04,12,15,06,15.00
2008,04,12,15,07,15.00
2008,04,12,15,08,15.00
2008,04,12,15,09,15.00
2008,04,12,15,10,15.00
2008,04,12,15,11,15.10
2008,04,12,15,12,15.00
2008,04,12,15,13,15.00
2008,04,12,15,14,15.00
2008,04,12,15,15,15.00
2008,04,12,15,16,15.00
2008,04,12,15,17,14.90
2008,04,12,15,18,14.80
2008,04,12,15,19,14.70
2008,04,12,15,20,14.70
2008,04,12,15,21,14.80
2008,04,12,15,22,14.80
2008,04,12,15,23,14.80
2008,04,12,15,24,15.00
2008,04,12,15,25,15.00
2008,04,12,15,26,15.00
2008,04,12,15,27,14.80
2008,04,12,15,28,14.80
2008,04,12,15,29,14.80
2008,04,12,15,30,15.00
2008,04,12,15,31,15.00
2008,04,12,15,32,15.00
2008,04,12,15,33,15.00
2008,04,12,15,34,15.00
2008,04,12,15,35,14.90
2008,04,12,15,36,14.80
2008,04,12,15,37,14.70
2008,04,12,15,38,14.70
2008,04,12,15,39,14.60
2008,04,12,15,40,14.60
2008,04,12,15,41,14.60
2008,04,12,15,42,14.60
2008,04,12,15,43,14.70
2008,04,12,15,44,14.80
2008,04,12,15,45,14.80
2008,04,12,15,46,14.80
2008,04,12,15,47,14.90
2008,04,12,15,48,15.00
2008,04,12,15,49,15.00
2008,04,12,15,50,15.00
2008,04,12,15,51,15.00
2008,04,12,15,52,15.00
2008,04,12,15,53,15.00
2008,04,12,15,54,15.00
2008,04,12,15,55,15.00
2008,04,12,15,56,15.00
2008,04,12,15,57,15.00
2008,04,12,15,58,15.00
2008,04,12,15,59,15.00
2008,04,12,16,00,15.00
2008,04,12,16,01,14.90
2008,04,12,16,02,15.00
2008,04,12,16,03,15.00
2008,04,12,16,04,15.00
2008,04,12,16,05,15.00
2008,04,12,16,06,15.00
2008,04,12,16,07,15.00
2008,04,12,16,08,15.10
2008,04,12,16,09,15.10
2008,04,12,16,10,15.20
2008,04,12,16,11,15.20
2008,04,12,16,12,15.20
2008,04,12,16,13,15.30
2008,04,12,16,14,15.40
2008,04,12,16,15,15.40
2008,04,12,16,16,15.40
2008,04,12,16,17,15.50
2008,04,12,16,18,15.60
2008,04,12,16,19,15.60
2008,04,12,16,20,15.70
2008,04,12,16,21,15.60
2008,04,12,16,22,15.60
2008,04,12,16,23,15.70
2008,04,12,16,24,15.60
2008,04,12,16,25,15.60
2008,04,12,16,26,15.50
2008,04,12,16,27,15.50
2008,04,12,16,28,15.40
2008,04,12,16,29,15.40
2008,04,12,16,30,15.30
2008,04,12,16,31,15.30
2008,04,12,16,32,15.20
2008,04,12,16,33,15.20
2008,04,12,16,34,15.30
2008,04,12,16,35,15.30
2008,04,12,16,36,15.30
2008,04,12,16,37,15.30
2008,04,12,16,38,15.30
2008,04,12,16,39,15.40
2008,04,12,16,40,15.30
2008,04,12,16,41,15.30
2008,04,12,16,42,15.30
2008,04,12,16,43,15.20
2008,04,12,16,44,15.10
2008,04,12,16,45,15.10
2008,04,12,16,46,15.10
2008,04,12,16,47,15.10
2008,04,12,16,48,15.10
2008,04,12,16,49,15.00
2008,04,12,16,50,15.00
2008,04,12,16,51,15.00
2008,04,12,16,52,15.00
2008,04,12,16,53,15.00
2008,04,12,16,54,15.00
2008,04,12,16,55,15.00
2008,04,12,16,56,15.00
2008,04,12,16,57,15.10
2008,04,12,16,58,15.20
2008,04,12,16,59,15.30
2008,04,12,17,00,15.30
2008,04,12,17,01,15.40
2008,04,12,17,02,15.50
2008,04,12,17,03,15.60
2008,04,12,17,04,15.60
2008,04,12,17,05,15.60
2008,04,12,17,06,15.60
2008,04,12,17,07,15.60
2008,04,12,17,08,15.60
2008,04,12,17,09,15.60
2008,04,12,17,10,15.60
2008,04,12,17,11,15.60
2008,04,12,17,12,15.60
2008,04,12,17,13,15.70
2008,04,12,17,14,15.70
2008,04,12,17,15,15.80
2008,04,12,17,16,15.80
2008,04,12,17,17,15.80
2008,04,12,17,18,15.80
2008,04,12,17,19,15.80
2008,04,12,17,20,15.90
2008,04,12,17,21,15.80
2008,04,12,17,22,15.90
2008,04,12,17,23,15.90
2008,04,12,17,24,15.90
2008,04,12,17,25,16.00
2008,04,12,17,26,16.00
2008,04,12,17,27,16.10
2008,04,12,17,28,16.00
2008,04,12,17,29,16.00
2008,04,12,17,30,16.00
2008,04,12,17,31,15.90
2008,04,12,17,32,15.90
2008,04,12,17,33,15.90
2008,04,12,17,34,15.80
2008,04,12,17,35,15.80
2008,04,12,17,36,15.70
2008,04,12,17,37,15.70
2008,04,12,17,38,15.60
2008,04,12,17,39,15.60
2008,04,12,17,40,15.70
2008,04,12,17,41,15.70
2008,04,12,17,42,15.70
2008,04,12,17,43,15.80